Regional Weather Roundup
Issued by NWS

Home | Current Version | Previous Version | Graphics & Text | Print | Product List | Glossary On
Versions: 1 2 3 4 5 6 7 8 9 10 11 12 13 14 15 16 17 18 19 20 21 22 23 24 25 26 27 28 29 30 31 32 33 34 35 36 37 38 39 40 41 42 43 44 45 46 47 48 49 50
000
ASUS45 KABQ 050601
RWRNM
NEW MEXICO REGIONAL WEATHER ROUNDUP
NATIONAL WEATHER SERVICE ALBUQUERQUE NM
1200 AM MDT SUN JUL 05 2015

NOTE: "FAIR" MEANS FEW OR NO CLOUDS BELOW 12,000 FEET AGL WITH NO
       SIGNIFICANT WEATHER OR OBSTRUCTIONS TO VISION.

      THIS PRODUCT IS RELEASED AS TWO VERSIONS.  ONE VERSION NEAR
      THE TOP OF THE HOUR CONTAINING PRELIMINARY DATA FROM ALBUQUERQUE
      AND OTHER STATIONS.  A FINAL VERSION WITH ADDITIONAL DATA IS
      ISSUED ABOUT 10 MINUTES AFTER THE HOUR.

NMZ501-503-504-510>518-050700-
NORTHWEST PLATEAU/NORTHCENTRAL MOUNTAINS

CITY           SKY/WX    TMP DP  RH WIND       PRES   REMARKS
FARMINGTON     CLOUDY    65  59  81 NE3       30.15S
6HR MIN TEMP:  64; 6HR MAX TEMP:  79; 6HR PCP:  0.02;

SANTA FE       CLOUDY    68  55  63 S5        30.20S
6HR MIN TEMP:  66; 6HR MAX TEMP:  80;

TAOS           CLOUDY    61  43  51 SE3       30.25S

$$
NMZ402-403-502-505>509-050700-
WESTCENTRAL MOUNTAINS/SOUTHWEST MOUNTAINS

CITY           SKY/WX    TMP DP  RH WIND       PRES   REMARKS
GALLUP         CLOUDY    64  57  78 S7        30.24R
6HR MIN TEMP:  63; 6HR MAX TEMP:  72; 6HR PCP:  0.01;

GRANTS         CLOUDY    62  58  86 NW5       30.25S
SILVER CITY      N/A     66  63  88 SE14G22   30.20R

$$
NMZ407-409-411-412-050700-
SOUTHERN DESERTS

CITY           SKY/WX    TMP DP  RH WIND       PRES   REMARKS
LORDSBURG      CLOUDY    75  59  57 S5        30.10R
DEMING         LGT RAIN  68  65  90 SE9       30.11F
6HR MIN TEMP:  67; 6HR MAX TEMP:  92; 6HR PCP:  1.42;

HOLLOMAN AFB   MOCLDY    79  56  45 W5        30.05R
ALAMOGORDO     MOCLDY    77  55  47 CALM      30.08R
T OR C         CLOUDY    70  64  81 W6        30.12F
6HR MIN TEMP:  69; 6HR MAX TEMP:  88; 6HR PCP:  0.04;


$$
NMZ519>523-050700-
CENTRAL VALLEYS/CENTRAL HIGHLANDS

CITY           SKY/WX    TMP DP  RH WIND       PRES   REMARKS
ALBUQUERQUE    MOCLDY    73  56  54 S5        30.16R
6HR MIN TEMP:  72; 6HR MAX TEMP:  80;

DOUBLE EAGLE   MOCLDY    67  58  73 SW7       30.19S
CLINES CORNERS   N/A     63  51  65 W9        30.24
6HR MIN TEMP:  60; 6HR MAX TEMP:  83;

BELEN          FAIR      73  53  49 S5        30.14S
6HR MIN TEMP:  73; 6HR MAX TEMP:  83;

SOCORRO        NOT AVBL

$$
NMZ524>526-539-540-050700-
SOUTHCENTRAL MOUNTAINS

CITY           SKY/WX    TMP DP  RH WIND       PRES   REMARKS
RUIDOSO        NOT AVBL

$$
NMZ527>531-050700-
NORTHEAST HIGHLANDS/NORTHEAST PLAINS

CITY           SKY/WX    TMP DP  RH WIND       PRES   REMARKS
LAS VEGAS      MOCLDY    62  54  74 S13       30.22F
6HR MIN TEMP:  61; 6HR MAX TEMP:  72;

RATON          PTCLDY    61  55  81 N7        30.16R
6HR MIN TEMP:  61; 6HR MAX TEMP:  78;

CLAYTON        CLEAR     67  57  70 SW8       30.07S
6HR MIN TEMP:  65; 6HR MAX TEMP:  88;


$$
NMZ532>537-050700-
EASTCENTRAL PLAINS

CITY           SKY/WX    TMP DP  RH WIND       PRES   REMARKS
TUCUMCARI      MOCLDY    74  57  55 SW8       30.02F
6HR MIN TEMP:  74; 6HR MAX TEMP:  92;

CANNON AFB     MOCLDY    70  62  76 S7        30.07F
6HR MIN TEMP:  70; 6HR MAX TEMP:  85;

CLOVIS AIRPORT MOCLDY    72  59  64 S12         N/A

$$
NMZ028-029-538-050700-
SOUTHEAST PLAINS

CITY           SKY/WX    TMP DP  RH WIND       PRES   REMARKS
ROSWELL        MOCLDY    74  57  55 S6        30.02S
6HR MIN TEMP:  74; 6HR MAX TEMP:  91;

ARTESIA        MOCLDY    75  61  60 S7        30.03S
CARLSBAD       PTCLDY    77  61  57 S6        30.00S
6HR MIN TEMP:  77; 6HR MAX TEMP:  92;

HOBBS          MOCLDY    73  61  64 SE6       30.07S


$$


USA.gov is the U.S. government's official web portal to all federal, state and local government web resources and services.